Index of /20260414/WXO-DD/model_gdps/15km/12/132
Name Last modified Size Description
Parent Directory -
20260414T12Z_MSC_GDPS_AbsoluteVorticity_IsbL-0200_LatLon0.15_PT132H.grib2 2026-04-14 16:33 1.5M
20260414T12Z_MSC_GDPS_AbsoluteVorticity_IsbL-0250_LatLon0.15_PT132H.grib2 2026-04-14 16:33 1.3M
20260414T12Z_MSC_GDPS_AbsoluteVorticity_IsbL-0500_LatLon0.15_PT132H.grib2 2026-04-14 16:33 1.2M
20260414T12Z_MSC_GDPS_AbsoluteVorticity_IsbL-0700_LatLon0.15_PT132H.grib2 2026-04-14 16:33 1.6M
20260414T12Z_MSC_GDPS_AbsoluteVorticity_IsbL-0850_LatLon0.15_PT132H.grib2 2026-04-14 16:33 1.6M
20260414T12Z_MSC_GDPS_AirTemp-Max_AGL-2m_LatLon0.15_PT132H.grib2 2026-04-14 16:33 749K
20260414T12Z_MSC_GDPS_AirTemp-Min_AGL-2m_LatLon0.15_PT132H.grib2 2026-04-14 16:33 797K
20260414T12Z_MSC_GDPS_AirTemp_AGL-120m_LatLon0.15_PT132H.grib2 2026-04-14 16:33 909K
20260414T12Z_MSC_GDPS_AirTemp_AGL-2m_LatLon0.15_PT132H.grib2 2026-04-14 16:33 1.0M
20260414T12Z_MSC_GDPS_AirTemp_AGL-40m_LatLon0.15_PT132H.grib2 2026-04-14 16:33 929K
20260414T12Z_MSC_GDPS_AirTemp_AGL-80m_LatLon0.15_PT132H.grib2 2026-04-14 16:33 918K
20260414T12Z_MSC_GDPS_AirTemp_IsbL-0001_LatLon0.15_PT132H.grib2 2026-04-14 16:33 704K
20260414T12Z_MSC_GDPS_AirTemp_IsbL-0005_LatLon0.15_PT132H.grib2 2026-04-14 16:33 688K
20260414T12Z_MSC_GDPS_AirTemp_IsbL-0010_LatLon0.15_PT132H.grib2 2026-04-14 16:33 758K
20260414T12Z_MSC_GDPS_AirTemp_IsbL-0020_LatLon0.15_PT132H.grib2 2026-04-14 16:33 701K
20260414T12Z_MSC_GDPS_AirTemp_IsbL-0030_LatLon0.15_PT132H.grib2 2026-04-14 16:33 752K
20260414T12Z_MSC_GDPS_AirTemp_IsbL-0050_LatLon0.15_PT132H.grib2 2026-04-14 16:33 818K
20260414T12Z_MSC_GDPS_AirTemp_IsbL-0100_LatLon0.15_PT132H.grib2 2026-04-14 16:33 959K
20260414T12Z_MSC_GDPS_AirTemp_IsbL-0150_LatLon0.15_PT132H.grib2 2026-04-14 16:33 1.0M
20260414T12Z_MSC_GDPS_AirTemp_IsbL-0175_LatLon0.15_PT132H.grib2 2026-04-14 16:33 968K
20260414T12Z_MSC_GDPS_AirTemp_IsbL-0200_LatLon0.15_PT132H.grib2 2026-04-14 16:33 1.0M
20260414T12Z_MSC_GDPS_AirTemp_IsbL-0225_LatLon0.15_PT132H.grib2 2026-04-14 16:33 1.0M
20260414T12Z_MSC_GDPS_AirTemp_IsbL-0250_LatLon0.15_PT132H.grib2 2026-04-14 16:33 1.0M
20260414T12Z_MSC_GDPS_AirTemp_IsbL-0275_LatLon0.15_PT132H.grib2 2026-04-14 16:33 1.0M
20260414T12Z_MSC_GDPS_AirTemp_IsbL-0300_LatLon0.15_PT132H.grib2 2026-04-14 16:33 1.0M
20260414T12Z_MSC_GDPS_AirTemp_IsbL-0350_LatLon0.15_PT132H.grib2 2026-04-14 16:33 924K
20260414T12Z_MSC_GDPS_AirTemp_IsbL-0400_LatLon0.15_PT132H.grib2 2026-04-14 16:33 936K
20260414T12Z_MSC_GDPS_AirTemp_IsbL-0450_LatLon0.15_PT132H.grib2 2026-04-14 16:33 962K
20260414T12Z_MSC_GDPS_AirTemp_IsbL-0500_LatLon0.15_PT132H.grib2 2026-04-14 16:33 1.0M
20260414T12Z_MSC_GDPS_AirTemp_IsbL-0550_LatLon0.15_PT132H.grib2 2026-04-14 16:33 801K
20260414T12Z_MSC_GDPS_AirTemp_IsbL-0600_LatLon0.15_PT132H.grib2 2026-04-14 16:33 896K
20260414T12Z_MSC_GDPS_AirTemp_IsbL-0650_LatLon0.15_PT132H.grib2 2026-04-14 16:33 923K
20260414T12Z_MSC_GDPS_AirTemp_IsbL-0700_LatLon0.15_PT132H.grib2 2026-04-14 16:33 949K
20260414T12Z_MSC_GDPS_AirTemp_IsbL-0750_LatLon0.15_PT132H.grib2 2026-04-14 16:33 1.0M
20260414T12Z_MSC_GDPS_AirTemp_IsbL-0800_LatLon0.15_PT132H.grib2 2026-04-14 16:33 1.1M
20260414T12Z_MSC_GDPS_AirTemp_IsbL-0850_LatLon0.15_PT132H.grib2 2026-04-14 16:33 1.1M
20260414T12Z_MSC_GDPS_AirTemp_IsbL-0875_LatLon0.15_PT132H.grib2 2026-04-14 16:33 1.1M
20260414T12Z_MSC_GDPS_AirTemp_IsbL-0900_LatLon0.15_PT132H.grib2 2026-04-14 16:33 1.1M
20260414T12Z_MSC_GDPS_AirTemp_IsbL-0925_LatLon0.15_PT132H.grib2 2026-04-14 16:33 1.1M
20260414T12Z_MSC_GDPS_AirTemp_IsbL-0950_LatLon0.15_PT132H.grib2 2026-04-14 16:33 1.1M
20260414T12Z_MSC_GDPS_AirTemp_IsbL-0970_LatLon0.15_PT132H.grib2 2026-04-14 16:33 1.1M
20260414T12Z_MSC_GDPS_AirTemp_IsbL-0985_LatLon0.15_PT132H.grib2 2026-04-14 16:33 1.1M
20260414T12Z_MSC_GDPS_AirTemp_IsbL-1000_LatLon0.15_PT132H.grib2 2026-04-14 16:33 1.1M
20260414T12Z_MSC_GDPS_AirTemp_IsbL-1015_LatLon0.15_PT132H.grib2 2026-04-14 16:33 1.1M
20260414T12Z_MSC_GDPS_Albedo_Sfc_LatLon0.15_PT132H.grib2 2026-04-14 16:33 246K
20260414T12Z_MSC_GDPS_CAPE_Sfc_LatLon0.15_PT132H.grib2 2026-04-14 16:33 3.8M
20260414T12Z_MSC_GDPS_CIN_Sfc_LatLon0.15_PT132H.grib2 2026-04-14 16:33 2.8M
20260414T12Z_MSC_GDPS_CloudWater_EAtm_LatLon0.15_PT132H.grib2 2026-04-14 16:33 530K
20260414T12Z_MSC_GDPS_ConvectivePrecip-Accum_Sfc_LatLon0.15_PT132H.grib2 2026-04-14 16:33 3.5M
20260414T12Z_MSC_GDPS_DewPointDepression_AGL-2m_LatLon0.15_PT132H.grib2 2026-04-14 16:33 747K
20260414T12Z_MSC_GDPS_DewPointDepression_IsbL-0010_LatLon0.15_PT132H.grib2 2026-04-14 16:33 4.6K
20260414T12Z_MSC_GDPS_DewPointDepression_IsbL-0020_LatLon0.15_PT132H.grib2 2026-04-14 16:33 57K
20260414T12Z_MSC_GDPS_DewPointDepression_IsbL-0030_LatLon0.15_PT132H.grib2 2026-04-14 16:33 70K
20260414T12Z_MSC_GDPS_DewPointDepression_IsbL-0050_LatLon0.15_PT132H.grib2 2026-04-14 16:33 356K
20260414T12Z_MSC_GDPS_DewPointDepression_IsbL-0100_LatLon0.15_PT132H.grib2 2026-04-14 16:33 381K
20260414T12Z_MSC_GDPS_DewPointDepression_IsbL-0150_LatLon0.15_PT132H.grib2 2026-04-14 16:33 455K
20260414T12Z_MSC_GDPS_DewPointDepression_IsbL-0175_LatLon0.15_PT132H.grib2 2026-04-14 16:33 535K
20260414T12Z_MSC_GDPS_DewPointDepression_IsbL-0200_LatLon0.15_PT132H.grib2 2026-04-14 16:33 624K
20260414T12Z_MSC_GDPS_DewPointDepression_IsbL-0225_LatLon0.15_PT132H.grib2 2026-04-14 16:33 751K
20260414T12Z_MSC_GDPS_DewPointDepression_IsbL-0250_LatLon0.15_PT132H.grib2 2026-04-14 16:33 868K
20260414T12Z_MSC_GDPS_DewPointDepression_IsbL-0275_LatLon0.15_PT132H.grib2 2026-04-14 16:33 884K
20260414T12Z_MSC_GDPS_DewPointDepression_IsbL-0300_LatLon0.15_PT132H.grib2 2026-04-14 16:33 925K
20260414T12Z_MSC_GDPS_DewPointDepression_IsbL-0350_LatLon0.15_PT132H.grib2 2026-04-14 16:33 954K
20260414T12Z_MSC_GDPS_DewPointDepression_IsbL-0400_LatLon0.15_PT132H.grib2 2026-04-14 16:33 1.0M
20260414T12Z_MSC_GDPS_DewPointDepression_IsbL-0450_LatLon0.15_PT132H.grib2 2026-04-14 16:33 1.0M
20260414T12Z_MSC_GDPS_DewPointDepression_IsbL-0500_LatLon0.15_PT132H.grib2 2026-04-14 16:33 1.0M
20260414T12Z_MSC_GDPS_DewPointDepression_IsbL-0550_LatLon0.15_PT132H.grib2 2026-04-14 16:33 1.0M
20260414T12Z_MSC_GDPS_DewPointDepression_IsbL-0600_LatLon0.15_PT132H.grib2 2026-04-14 16:33 1.1M
20260414T12Z_MSC_GDPS_DewPointDepression_IsbL-0650_LatLon0.15_PT132H.grib2 2026-04-14 16:33 1.1M
20260414T12Z_MSC_GDPS_DewPointDepression_IsbL-0700_LatLon0.15_PT132H.grib2 2026-04-14 16:33 1.1M
20260414T12Z_MSC_GDPS_DewPointDepression_IsbL-0750_LatLon0.15_PT132H.grib2 2026-04-14 16:33 1.1M
20260414T12Z_MSC_GDPS_DewPointDepression_IsbL-0800_LatLon0.15_PT132H.grib2 2026-04-14 16:33 1.2M
20260414T12Z_MSC_GDPS_DewPointDepression_IsbL-0850_LatLon0.15_PT132H.grib2 2026-04-14 16:33 1.1M
20260414T12Z_MSC_GDPS_DewPointDepression_IsbL-0875_LatLon0.15_PT132H.grib2 2026-04-14 16:33 1.1M
20260414T12Z_MSC_GDPS_DewPointDepression_IsbL-0900_LatLon0.15_PT132H.grib2 2026-04-14 16:33 1.1M
20260414T12Z_MSC_GDPS_DewPointDepression_IsbL-0925_LatLon0.15_PT132H.grib2 2026-04-14 16:33 1.0M
20260414T12Z_MSC_GDPS_DewPointDepression_IsbL-0950_LatLon0.15_PT132H.grib2 2026-04-14 16:33 1.0M
20260414T12Z_MSC_GDPS_DewPointDepression_IsbL-0970_LatLon0.15_PT132H.grib2 2026-04-14 16:33 1.0M
20260414T12Z_MSC_GDPS_DewPointDepression_IsbL-0985_LatLon0.15_PT132H.grib2 2026-04-14 16:33 1.0M
20260414T12Z_MSC_GDPS_DewPointDepression_IsbL-1000_LatLon0.15_PT132H.grib2 2026-04-14 16:33 965K
20260414T12Z_MSC_GDPS_DewPointDepression_IsbL-1015_LatLon0.15_PT132H.grib2 2026-04-14 16:33 899K
20260414T12Z_MSC_GDPS_DewPoint_AGL-2m_LatLon0.15_PT132H.grib2 2026-04-14 16:33 605K
20260414T12Z_MSC_GDPS_DownwardLongwaveRadiationFlux-Accum_Sfc_LatLon0.15_PT132H.grib2 2026-04-14 16:33 821K
20260414T12Z_MSC_GDPS_DownwardShortwaveRadiationFlux-Accum_NTAtm_LatLon0.15_PT132H.grib2 2026-04-14 16:33 211K
20260414T12Z_MSC_GDPS_DownwardShortwaveRadiationFlux-Accum_Sfc_LatLon0.15_PT132H.grib2 2026-04-14 16:33 1.0M
20260414T12Z_MSC_GDPS_FreezingRain-Accum12h_Sfc_LatLon0.15_PT132H.grib2 2026-04-14 16:33 109K
20260414T12Z_MSC_GDPS_FreezingRain-Accum1h_Sfc_LatLon0.15_PT132H.grib2 2026-04-14 16:33 34K
20260414T12Z_MSC_GDPS_FreezingRain-Accum24h_Sfc_LatLon0.15_PT132H.grib2 2026-04-14 16:33 144K
20260414T12Z_MSC_GDPS_FreezingRain-Accum3h_Sfc_LatLon0.15_PT132H.grib2 2026-04-14 16:33 44K
20260414T12Z_MSC_GDPS_FreezingRain-Accum6h_Sfc_LatLon0.15_PT132H.grib2 2026-04-14 16:33 66K
20260414T12Z_MSC_GDPS_FreezingRain-Accum_Sfc_LatLon0.15_PT132H.grib2 2026-04-14 16:33 330K
20260414T12Z_MSC_GDPS_GeopotentialHeight_IsbL-0001_LatLon0.15_PT132H.grib2 2026-04-14 16:33 386K
20260414T12Z_MSC_GDPS_GeopotentialHeight_IsbL-0005_LatLon0.15_PT132H.grib2 2026-04-14 16:33 498K
20260414T12Z_MSC_GDPS_GeopotentialHeight_IsbL-0010_LatLon0.15_PT132H.grib2 2026-04-14 16:33 429K
20260414T12Z_MSC_GDPS_GeopotentialHeight_IsbL-0020_LatLon0.15_PT132H.grib2 2026-04-14 16:33 571K
20260414T12Z_MSC_GDPS_GeopotentialHeight_IsbL-0030_LatLon0.15_PT132H.grib2 2026-04-14 16:33 582K
20260414T12Z_MSC_GDPS_GeopotentialHeight_IsbL-0050_LatLon0.15_PT132H.grib2 2026-04-14 16:33 583K
20260414T12Z_MSC_GDPS_GeopotentialHeight_IsbL-0100_LatLon0.15_PT132H.grib2 2026-04-14 16:33 624K
20260414T12Z_MSC_GDPS_GeopotentialHeight_IsbL-0150_LatLon0.15_PT132H.grib2 2026-04-14 16:33 639K
20260414T12Z_MSC_GDPS_GeopotentialHeight_IsbL-0175_LatLon0.15_PT132H.grib2 2026-04-14 16:33 642K
20260414T12Z_MSC_GDPS_GeopotentialHeight_IsbL-0200_LatLon0.15_PT132H.grib2 2026-04-14 16:33 645K
20260414T12Z_MSC_GDPS_GeopotentialHeight_IsbL-0225_LatLon0.15_PT132H.grib2 2026-04-14 16:33 645K
20260414T12Z_MSC_GDPS_GeopotentialHeight_IsbL-0250_LatLon0.15_PT132H.grib2 2026-04-14 16:33 646K
20260414T12Z_MSC_GDPS_GeopotentialHeight_IsbL-0275_LatLon0.15_PT132H.grib2 2026-04-14 16:33 644K
20260414T12Z_MSC_GDPS_GeopotentialHeight_IsbL-0300_LatLon0.15_PT132H.grib2 2026-04-14 16:33 642K
20260414T12Z_MSC_GDPS_GeopotentialHeight_IsbL-0350_LatLon0.15_PT132H.grib2 2026-04-14 16:33 633K
20260414T12Z_MSC_GDPS_GeopotentialHeight_IsbL-0400_LatLon0.15_PT132H.grib2 2026-04-14 16:33 621K
20260414T12Z_MSC_GDPS_GeopotentialHeight_IsbL-0450_LatLon0.15_PT132H.grib2 2026-04-14 16:33 541K
20260414T12Z_MSC_GDPS_GeopotentialHeight_IsbL-0500_LatLon0.15_PT132H.grib2 2026-04-14 16:33 530K
20260414T12Z_MSC_GDPS_GeopotentialHeight_IsbL-0550_LatLon0.15_PT132H.grib2 2026-04-14 16:33 694K
20260414T12Z_MSC_GDPS_GeopotentialHeight_IsbL-0600_LatLon0.15_PT132H.grib2 2026-04-14 16:33 686K
20260414T12Z_MSC_GDPS_GeopotentialHeight_IsbL-0650_LatLon0.15_PT132H.grib2 2026-04-14 16:33 685K
20260414T12Z_MSC_GDPS_GeopotentialHeight_IsbL-0700_LatLon0.15_PT132H.grib2 2026-04-14 16:33 685K
20260414T12Z_MSC_GDPS_GeopotentialHeight_IsbL-0750_LatLon0.15_PT132H.grib2 2026-04-14 16:33 684K
20260414T12Z_MSC_GDPS_GeopotentialHeight_IsbL-0800_LatLon0.15_PT132H.grib2 2026-04-14 16:33 699K
20260414T12Z_MSC_GDPS_GeopotentialHeight_IsbL-0850_LatLon0.15_PT132H.grib2 2026-04-14 16:33 644K
20260414T12Z_MSC_GDPS_GeopotentialHeight_IsbL-0875_LatLon0.15_PT132H.grib2 2026-04-14 16:33 650K
20260414T12Z_MSC_GDPS_GeopotentialHeight_IsbL-0900_LatLon0.15_PT132H.grib2 2026-04-14 16:33 657K
20260414T12Z_MSC_GDPS_GeopotentialHeight_IsbL-0925_LatLon0.15_PT132H.grib2 2026-04-14 16:33 665K
20260414T12Z_MSC_GDPS_GeopotentialHeight_IsbL-0950_LatLon0.15_PT132H.grib2 2026-04-14 16:33 736K
20260414T12Z_MSC_GDPS_GeopotentialHeight_IsbL-0970_LatLon0.15_PT132H.grib2 2026-04-14 16:33 747K
20260414T12Z_MSC_GDPS_GeopotentialHeight_IsbL-0985_LatLon0.15_PT132H.grib2 2026-04-14 16:33 762K
20260414T12Z_MSC_GDPS_GeopotentialHeight_IsbL-1000_LatLon0.15_PT132H.grib2 2026-04-14 16:33 782K
20260414T12Z_MSC_GDPS_GeopotentialHeight_IsbL-1015_LatLon0.15_PT132H.grib2 2026-04-14 16:33 805K
20260414T12Z_MSC_GDPS_Humidex_Sfc_LatLon0.15_PT132H.grib2 2026-04-14 16:33 5.3M
20260414T12Z_MSC_GDPS_IcePellets-Accum12h_Sfc_LatLon0.15_PT132H.grib2 2026-04-14 16:33 50K
20260414T12Z_MSC_GDPS_IcePellets-Accum1h_Sfc_LatLon0.15_PT132H.grib2 2026-04-14 16:33 12K
20260414T12Z_MSC_GDPS_IcePellets-Accum24h_Sfc_LatLon0.15_PT132H.grib2 2026-04-14 16:33 89K
20260414T12Z_MSC_GDPS_IcePellets-Accum3h_Sfc_LatLon0.15_PT132H.grib2 2026-04-14 16:33 18K
20260414T12Z_MSC_GDPS_IcePellets-Accum6h_Sfc_LatLon0.15_PT132H.grib2 2026-04-14 16:33 30K
20260414T12Z_MSC_GDPS_IcePellets-Accum_Sfc_LatLon0.15_PT132H.grib2 2026-04-14 16:33 188K
20260414T12Z_MSC_GDPS_KIndex_Sfc_LatLon0.15_PT132H.grib2 2026-04-14 16:33 6.5M
20260414T12Z_MSC_GDPS_LatentHeatNetFlux_Sfc_LatLon0.15_PT132H.grib2 2026-04-14 16:33 638K
20260414T12Z_MSC_GDPS_LiftedIndex-MU-VT_IsbL-0500_LatLon0.15_PT132H.grib2 2026-04-14 16:33 5.3M
20260414T12Z_MSC_GDPS_NetLongwaveRadiationFlux-Accum_Sfc_LatLon0.15_PT132H.grib2 2026-04-14 16:33 1.0M
20260414T12Z_MSC_GDPS_NetShortwaveRadiationFlux-Accum_Sfc_LatLon0.15_PT132H.grib2 2026-04-14 16:33 1.0M
20260414T12Z_MSC_GDPS_O3MixingRatio_LatLon0.15_PT132H.grib2 2026-04-14 16:57 2.3M
20260414T12Z_MSC_GDPS_O3_EAtm_LatLon0.15_PT132H.grib2 2026-04-14 16:57 2.1M
20260414T12Z_MSC_GDPS_PlanetaryBoundaryLayerHeight_Sfc_LatLon0.15_PT132H.grib2 2026-04-14 16:33 2.4M
20260414T12Z_MSC_GDPS_Precip-Accum12h_Sfc_LatLon0.15_PT132H.grib2 2026-04-14 16:33 4.0M
20260414T12Z_MSC_GDPS_Precip-Accum1h_Sfc_LatLon0.15_PT132H.grib2 2026-04-14 16:33 3.2M
20260414T12Z_MSC_GDPS_Precip-Accum24h_Sfc_LatLon0.15_PT132H.grib2 2026-04-14 16:33 4.5M
20260414T12Z_MSC_GDPS_Precip-Accum3h_Sfc_LatLon0.15_PT132H.grib2 2026-04-14 16:33 3.5M
20260414T12Z_MSC_GDPS_Precip-Accum6h_Sfc_LatLon0.15_PT132H.grib2 2026-04-14 16:33 3.5M
20260414T12Z_MSC_GDPS_Precip-Accum_Sfc_LatLon0.15_PT132H.grib2 2026-04-14 16:33 5.1M
20260414T12Z_MSC_GDPS_PrecipRate_Sfc_LatLon0.15_PT132H.grib2 2026-04-14 16:33 2.9M
20260414T12Z_MSC_GDPS_PrecipType-Instant_Sfc_LatLon0.15_PT132H.grib2 2026-04-14 16:33 1.5M
20260414T12Z_MSC_GDPS_Pressure_MSL_LatLon0.15_PT132H.grib2 2026-04-14 16:33 719K
20260414T12Z_MSC_GDPS_Pressure_PVU-1.5_LatLon0.15_PT132H.grib2 2026-04-14 16:33 5.8M
20260414T12Z_MSC_GDPS_Pressure_PVU-1_LatLon0.15_PT132H.grib2 2026-04-14 16:33 6.0M
20260414T12Z_MSC_GDPS_Pressure_PVU-2_LatLon0.15_PT132H.grib2 2026-04-14 16:33 6.0M
20260414T12Z_MSC_GDPS_Pressure_Sfc_LatLon0.15_PT132H.grib2 2026-04-14 16:33 1.1M
20260414T12Z_MSC_GDPS_RadiativeTemp_Sfc_LatLon0.15_PT132H.grib2 2026-04-14 16:33 659K
20260414T12Z_MSC_GDPS_Rain-Accum12h_Sfc_LatLon0.15_PT132H.grib2 2026-04-14 16:33 2.6M
20260414T12Z_MSC_GDPS_Rain-Accum1h_Sfc_LatLon0.15_PT132H.grib2 2026-04-14 16:33 1.6M
20260414T12Z_MSC_GDPS_Rain-Accum24h_Sfc_LatLon0.15_PT132H.grib2 2026-04-14 16:33 3.1M
20260414T12Z_MSC_GDPS_Rain-Accum3h_Sfc_LatLon0.15_PT132H.grib2 2026-04-14 16:33 1.8M
20260414T12Z_MSC_GDPS_Rain-Accum6h_Sfc_LatLon0.15_PT132H.grib2 2026-04-14 16:33 2.2M
20260414T12Z_MSC_GDPS_Rain-Accum_Sfc_LatLon0.15_PT132H.grib2 2026-04-14 16:33 3.9M
20260414T12Z_MSC_GDPS_RelativeHumidity_AGL-2m_LatLon0.15_PT132H.grib2 2026-04-14 16:33 1.0M
20260414T12Z_MSC_GDPS_RelativeHumidity_IsbL-0010_LatLon0.15_PT132H.grib2 2026-04-14 16:33 247K
20260414T12Z_MSC_GDPS_RelativeHumidity_IsbL-0020_LatLon0.15_PT132H.grib2 2026-04-14 16:33 365K
20260414T12Z_MSC_GDPS_RelativeHumidity_IsbL-0030_LatLon0.15_PT132H.grib2 2026-04-14 16:33 414K
20260414T12Z_MSC_GDPS_RelativeHumidity_IsbL-0050_LatLon0.15_PT132H.grib2 2026-04-14 16:33 408K
20260414T12Z_MSC_GDPS_RelativeHumidity_IsbL-0100_LatLon0.15_PT132H.grib2 2026-04-14 16:33 485K
20260414T12Z_MSC_GDPS_RelativeHumidity_IsbL-0150_LatLon0.15_PT132H.grib2 2026-04-14 16:33 650K
20260414T12Z_MSC_GDPS_RelativeHumidity_IsbL-0175_LatLon0.15_PT132H.grib2 2026-04-14 16:33 783K
20260414T12Z_MSC_GDPS_RelativeHumidity_IsbL-0200_LatLon0.15_PT132H.grib2 2026-04-14 16:33 691K
20260414T12Z_MSC_GDPS_RelativeHumidity_IsbL-0225_LatLon0.15_PT132H.grib2 2026-04-14 16:33 783K
20260414T12Z_MSC_GDPS_RelativeHumidity_IsbL-0250_LatLon0.15_PT132H.grib2 2026-04-14 16:33 872K
20260414T12Z_MSC_GDPS_RelativeHumidity_IsbL-0275_LatLon0.15_PT132H.grib2 2026-04-14 16:33 895K
20260414T12Z_MSC_GDPS_RelativeHumidity_IsbL-0300_LatLon0.15_PT132H.grib2 2026-04-14 16:33 941K
20260414T12Z_MSC_GDPS_RelativeHumidity_IsbL-0350_LatLon0.15_PT132H.grib2 2026-04-14 16:33 960K
20260414T12Z_MSC_GDPS_RelativeHumidity_IsbL-0400_LatLon0.15_PT132H.grib2 2026-04-14 16:33 1.0M
20260414T12Z_MSC_GDPS_RelativeHumidity_IsbL-0450_LatLon0.15_PT132H.grib2 2026-04-14 16:33 1.0M
20260414T12Z_MSC_GDPS_RelativeHumidity_IsbL-0500_LatLon0.15_PT132H.grib2 2026-04-14 16:33 1.0M
20260414T12Z_MSC_GDPS_RelativeHumidity_IsbL-0550_LatLon0.15_PT132H.grib2 2026-04-14 16:33 1.0M
20260414T12Z_MSC_GDPS_RelativeHumidity_IsbL-0600_LatLon0.15_PT132H.grib2 2026-04-14 16:33 1.1M
20260414T12Z_MSC_GDPS_RelativeHumidity_IsbL-0650_LatLon0.15_PT132H.grib2 2026-04-14 16:33 1.1M
20260414T12Z_MSC_GDPS_RelativeHumidity_IsbL-0700_LatLon0.15_PT132H.grib2 2026-04-14 16:33 1.1M
20260414T12Z_MSC_GDPS_RelativeHumidity_IsbL-0750_LatLon0.15_PT132H.grib2 2026-04-14 16:33 1.1M
20260414T12Z_MSC_GDPS_RelativeHumidity_IsbL-0800_LatLon0.15_PT132H.grib2 2026-04-14 16:33 1.2M
20260414T12Z_MSC_GDPS_RelativeHumidity_IsbL-0850_LatLon0.15_PT132H.grib2 2026-04-14 16:33 1.3M
20260414T12Z_MSC_GDPS_RelativeHumidity_IsbL-0875_LatLon0.15_PT132H.grib2 2026-04-14 16:33 1.2M
20260414T12Z_MSC_GDPS_RelativeHumidity_IsbL-0900_LatLon0.15_PT132H.grib2 2026-04-14 16:33 1.2M
20260414T12Z_MSC_GDPS_RelativeHumidity_IsbL-0925_LatLon0.15_PT132H.grib2 2026-04-14 16:33 1.2M
20260414T12Z_MSC_GDPS_RelativeHumidity_IsbL-0950_LatLon0.15_PT132H.grib2 2026-04-14 16:33 1.2M
20260414T12Z_MSC_GDPS_RelativeHumidity_IsbL-0970_LatLon0.15_PT132H.grib2 2026-04-14 16:33 1.2M
20260414T12Z_MSC_GDPS_RelativeHumidity_IsbL-0985_LatLon0.15_PT132H.grib2 2026-04-14 16:33 1.1M
20260414T12Z_MSC_GDPS_RelativeHumidity_IsbL-1000_LatLon0.15_PT132H.grib2 2026-04-14 16:33 1.1M
20260414T12Z_MSC_GDPS_RelativeHumidity_IsbL-1015_LatLon0.15_PT132H.grib2 2026-04-14 16:33 1.0M
20260414T12Z_MSC_GDPS_RelativeVorticity_IsbL-0200_LatLon0.15_PT132H.grib2 2026-04-14 16:33 1.5M
20260414T12Z_MSC_GDPS_RelativeVorticity_IsbL-0250_LatLon0.15_PT132H.grib2 2026-04-14 16:33 1.3M
20260414T12Z_MSC_GDPS_RelativeVorticity_IsbL-0500_LatLon0.15_PT132H.grib2 2026-04-14 16:33 1.2M
20260414T12Z_MSC_GDPS_RelativeVorticity_IsbL-0700_LatLon0.15_PT132H.grib2 2026-04-14 16:33 1.6M
20260414T12Z_MSC_GDPS_RelativeVorticity_IsbL-0850_LatLon0.15_PT132H.grib2 2026-04-14 16:33 1.6M
20260414T12Z_MSC_GDPS_Runoff-Accum_Sfc_LatLon0.15_PT132H.grib2 2026-04-14 16:33 124K
20260414T12Z_MSC_GDPS_SensibleHeatNetFlux_Sfc_LatLon0.15_PT132H.grib2 2026-04-14 16:33 584K
20260414T12Z_MSC_GDPS_ShowalterIndex_IsbL-0500_LatLon0.15_PT132H.grib2 2026-04-14 16:33 6.2M
20260414T12Z_MSC_GDPS_Snow-Accum12h_Sfc_LatLon0.15_PT132H.grib2 2026-04-14 16:33 1.6M
20260414T12Z_MSC_GDPS_Snow-Accum1h_Sfc_LatLon0.15_PT132H.grib2 2026-04-14 16:33 1.1M
20260414T12Z_MSC_GDPS_Snow-Accum24h_Sfc_LatLon0.15_PT132H.grib2 2026-04-14 16:33 1.6M
20260414T12Z_MSC_GDPS_Snow-Accum3h_Sfc_LatLon0.15_PT132H.grib2 2026-04-14 16:33 1.1M
20260414T12Z_MSC_GDPS_Snow-Accum6h_Sfc_LatLon0.15_PT132H.grib2 2026-04-14 16:33 1.5M
20260414T12Z_MSC_GDPS_Snow-Accum_Sfc_LatLon0.15_PT132H.grib2 2026-04-14 16:33 2.1M
20260414T12Z_MSC_GDPS_SnowDensity_Sfc_LatLon0.15_PT132H.grib2 2026-04-14 16:33 272K
20260414T12Z_MSC_GDPS_SnowDepth_Sfc_LatLon0.15_PT132H.grib2 2026-04-14 16:33 1.8M
20260414T12Z_MSC_GDPS_SoilTemp_DBS-0to10cm_LatLon0.15_PT132H.grib2 2026-04-14 16:33 509K
20260414T12Z_MSC_GDPS_SoilTemp_Sfc_LatLon0.15_PT132H.grib2 2026-04-14 16:33 577K
20260414T12Z_MSC_GDPS_SoilVolumetricIceContent_Sfc_LatLon0.15_PT132H.grib2 2026-04-14 16:33 223K
20260414T12Z_MSC_GDPS_SoilVolumetricWaterContent_DBS-0to10cm_LatLon0.15_PT132H.grib2 2026-04-14 16:33 553K
20260414T12Z_MSC_GDPS_SoilVolumetricWaterContent_DBS-0to1cm_LatLon0.15_PT132H.grib2 2026-04-14 16:33 652K
20260414T12Z_MSC_GDPS_SpecificHumidity_AGL-120m_LatLon0.15_PT132H.grib2 2026-04-14 16:33 1.1M
20260414T12Z_MSC_GDPS_SpecificHumidity_AGL-2m_LatLon0.15_PT132H.grib2 2026-04-14 16:33 1.2M
20260414T12Z_MSC_GDPS_SpecificHumidity_AGL-40m_LatLon0.15_PT132H.grib2 2026-04-14 16:33 1.1M
20260414T12Z_MSC_GDPS_SpecificHumidity_AGL-80m_LatLon0.15_PT132H.grib2 2026-04-14 16:33 1.1M
20260414T12Z_MSC_GDPS_SpecificHumidity_IsbL-0001_LatLon0.15_PT132H.grib2 2026-04-14 16:33 1.1M
20260414T12Z_MSC_GDPS_SpecificHumidity_IsbL-0005_LatLon0.15_PT132H.grib2 2026-04-14 16:33 1.1M
20260414T12Z_MSC_GDPS_SpecificHumidity_IsbL-0010_LatLon0.15_PT132H.grib2 2026-04-14 16:33 1.2M
20260414T12Z_MSC_GDPS_SpecificHumidity_IsbL-0020_LatLon0.15_PT132H.grib2 2026-04-14 16:33 1.2M
20260414T12Z_MSC_GDPS_SpecificHumidity_IsbL-0030_LatLon0.15_PT132H.grib2 2026-04-14 16:33 1.5M
20260414T12Z_MSC_GDPS_SpecificHumidity_IsbL-0050_LatLon0.15_PT132H.grib2 2026-04-14 16:33 1.2M
20260414T12Z_MSC_GDPS_SpecificHumidity_IsbL-0100_LatLon0.15_PT132H.grib2 2026-04-14 16:33 1.3M
20260414T12Z_MSC_GDPS_SpecificHumidity_IsbL-0150_LatLon0.15_PT132H.grib2 2026-04-14 16:33 1.3M
20260414T12Z_MSC_GDPS_SpecificHumidity_IsbL-0175_LatLon0.15_PT132H.grib2 2026-04-14 16:33 1.3M
20260414T12Z_MSC_GDPS_SpecificHumidity_IsbL-0200_LatLon0.15_PT132H.grib2 2026-04-14 16:33 1.3M
20260414T12Z_MSC_GDPS_SpecificHumidity_IsbL-0225_LatLon0.15_PT132H.grib2 2026-04-14 16:33 1.3M
20260414T12Z_MSC_GDPS_SpecificHumidity_IsbL-0250_LatLon0.15_PT132H.grib2 2026-04-14 16:33 1.4M
20260414T12Z_MSC_GDPS_SpecificHumidity_IsbL-0275_LatLon0.15_PT132H.grib2 2026-04-14 16:33 1.3M
20260414T12Z_MSC_GDPS_SpecificHumidity_IsbL-0300_LatLon0.15_PT132H.grib2 2026-04-14 16:33 1.2M
20260414T12Z_MSC_GDPS_SpecificHumidity_IsbL-0350_LatLon0.15_PT132H.grib2 2026-04-14 16:33 1.5M
20260414T12Z_MSC_GDPS_SpecificHumidity_IsbL-0400_LatLon0.15_PT132H.grib2 2026-04-14 16:33 1.5M
20260414T12Z_MSC_GDPS_SpecificHumidity_IsbL-0450_LatLon0.15_PT132H.grib2 2026-04-14 16:33 1.6M
20260414T12Z_MSC_GDPS_SpecificHumidity_IsbL-0500_LatLon0.15_PT132H.grib2 2026-04-14 16:33 1.4M
20260414T12Z_MSC_GDPS_SpecificHumidity_IsbL-0550_LatLon0.15_PT132H.grib2 2026-04-14 16:33 1.6M
20260414T12Z_MSC_GDPS_SpecificHumidity_IsbL-0600_LatLon0.15_PT132H.grib2 2026-04-14 16:33 1.7M
20260414T12Z_MSC_GDPS_SpecificHumidity_IsbL-0650_LatLon0.15_PT132H.grib2 2026-04-14 16:33 1.5M
20260414T12Z_MSC_GDPS_SpecificHumidity_IsbL-0700_LatLon0.15_PT132H.grib2 2026-04-14 16:33 1.6M
20260414T12Z_MSC_GDPS_SpecificHumidity_IsbL-0750_LatLon0.15_PT132H.grib2 2026-04-14 16:33 1.7M
20260414T12Z_MSC_GDPS_SpecificHumidity_IsbL-0800_LatLon0.15_PT132H.grib2 2026-04-14 16:33 1.8M
20260414T12Z_MSC_GDPS_SpecificHumidity_IsbL-0850_LatLon0.15_PT132H.grib2 2026-04-14 16:33 1.9M
20260414T12Z_MSC_GDPS_SpecificHumidity_IsbL-0875_LatLon0.15_PT132H.grib2 2026-04-14 16:33 1.9M
20260414T12Z_MSC_GDPS_SpecificHumidity_IsbL-0900_LatLon0.15_PT132H.grib2 2026-04-14 16:33 1.9M
20260414T12Z_MSC_GDPS_SpecificHumidity_IsbL-0925_LatLon0.15_PT132H.grib2 2026-04-14 16:33 1.9M
20260414T12Z_MSC_GDPS_SpecificHumidity_IsbL-0950_LatLon0.15_PT132H.grib2 2026-04-14 16:33 1.5M
20260414T12Z_MSC_GDPS_SpecificHumidity_IsbL-0970_LatLon0.15_PT132H.grib2 2026-04-14 16:33 1.5M
20260414T12Z_MSC_GDPS_SpecificHumidity_IsbL-0985_LatLon0.15_PT132H.grib2 2026-04-14 16:33 1.5M
20260414T12Z_MSC_GDPS_SpecificHumidity_IsbL-1000_LatLon0.15_PT132H.grib2 2026-04-14 16:33 1.5M
20260414T12Z_MSC_GDPS_SpecificHumidity_IsbL-1015_LatLon0.15_PT132H.grib2 2026-04-14 16:33 1.4M
20260414T12Z_MSC_GDPS_SpecificHumidity_Sfc_LatLon0.15_PT132H.grib2 2026-04-14 16:33 626K
20260414T12Z_MSC_GDPS_Thickness_IsbL-0850to0700_LatLon0.15_PT132H.grib2 2026-04-14 16:33 464K
20260414T12Z_MSC_GDPS_Thickness_IsbL-1000to0500_LatLon0.15_PT132H.grib2 2026-04-14 16:33 372K
20260414T12Z_MSC_GDPS_Thickness_IsbL-1000to0850_LatLon0.15_PT132H.grib2 2026-04-14 16:33 486K
20260414T12Z_MSC_GDPS_TotalCloudCover_Sfc_LatLon0.15_PT132H.grib2 2026-04-14 16:33 817K
20260414T12Z_MSC_GDPS_TotalTotalsIndex_Sfc_LatLon0.15_PT132H.grib2 2026-04-14 16:33 6.2M
20260414T12Z_MSC_GDPS_UVIndex-ClearSky_Sfc_LatLon0.15_PT132H.grib2 2026-04-14 16:57 1.0M
20260414T12Z_MSC_GDPS_UVIndex_Sfc_LatLon0.15_PT132H.grib2 2026-04-14 16:57 1.5M
20260414T12Z_MSC_GDPS_UpwardLongwaveRadiationFlux_NTAtm_LatLon0.15_PT132H.grib2 2026-04-14 16:33 1.1M
20260414T12Z_MSC_GDPS_VerticalVelocity_IsbL-0200_LatLon0.15_PT132H.grib2 2026-04-14 16:33 1.2M
20260414T12Z_MSC_GDPS_VerticalVelocity_IsbL-0250_LatLon0.15_PT132H.grib2 2026-04-14 16:33 1.0M
20260414T12Z_MSC_GDPS_VerticalVelocity_IsbL-0500_LatLon0.15_PT132H.grib2 2026-04-14 16:33 1.0M
20260414T12Z_MSC_GDPS_VerticalVelocity_IsbL-0600_LatLon0.15_PT132H.grib2 2026-04-14 16:33 1.3M
20260414T12Z_MSC_GDPS_VerticalVelocity_IsbL-0700_LatLon0.15_PT132H.grib2 2026-04-14 16:33 1.4M
20260414T12Z_MSC_GDPS_VerticalVelocity_IsbL-0850_LatLon0.15_PT132H.grib2 2026-04-14 16:33 1.3M
20260414T12Z_MSC_GDPS_WindChill_Sfc_LatLon0.15_PT132H.grib2 2026-04-14 16:33 5.4M
20260414T12Z_MSC_GDPS_WindDir_AGL-10m_LatLon0.15_PT132H.grib2 2026-04-14 16:33 1.4M
20260414T12Z_MSC_GDPS_WindDir_AGL-120m_LatLon0.15_PT132H.grib2 2026-04-14 16:33 1.4M
20260414T12Z_MSC_GDPS_WindDir_AGL-40m_LatLon0.15_PT132H.grib2 2026-04-14 16:33 1.4M
20260414T12Z_MSC_GDPS_WindDir_AGL-80m_LatLon0.15_PT132H.grib2 2026-04-14 16:33 1.4M
20260414T12Z_MSC_GDPS_WindDir_IsbL-0001_LatLon0.15_PT132H.grib2 2026-04-14 16:33 648K
20260414T12Z_MSC_GDPS_WindDir_IsbL-0005_LatLon0.15_PT132H.grib2 2026-04-14 16:33 809K
20260414T12Z_MSC_GDPS_WindDir_IsbL-0010_LatLon0.15_PT132H.grib2 2026-04-14 16:33 864K
20260414T12Z_MSC_GDPS_WindDir_IsbL-0020_LatLon0.15_PT132H.grib2 2026-04-14 16:33 938K
20260414T12Z_MSC_GDPS_WindDir_IsbL-0030_LatLon0.15_PT132H.grib2 2026-04-14 16:33 898K
20260414T12Z_MSC_GDPS_WindDir_IsbL-0050_LatLon0.15_PT132H.grib2 2026-04-14 16:33 956K
20260414T12Z_MSC_GDPS_WindDir_IsbL-0100_LatLon0.15_PT132H.grib2 2026-04-14 16:33 1.0M
20260414T12Z_MSC_GDPS_WindDir_IsbL-0150_LatLon0.15_PT132H.grib2 2026-04-14 16:33 1.0M
20260414T12Z_MSC_GDPS_WindDir_IsbL-0175_LatLon0.15_PT132H.grib2 2026-04-14 16:33 1.0M
20260414T12Z_MSC_GDPS_WindDir_IsbL-0200_LatLon0.15_PT132H.grib2 2026-04-14 16:33 1.1M
20260414T12Z_MSC_GDPS_WindDir_IsbL-0225_LatLon0.15_PT132H.grib2 2026-04-14 16:33 1.1M
20260414T12Z_MSC_GDPS_WindDir_IsbL-0250_LatLon0.15_PT132H.grib2 2026-04-14 16:33 1.1M
20260414T12Z_MSC_GDPS_WindDir_IsbL-0275_LatLon0.15_PT132H.grib2 2026-04-14 16:33 1.2M
20260414T12Z_MSC_GDPS_WindDir_IsbL-0300_LatLon0.15_PT132H.grib2 2026-04-14 16:33 1.1M
20260414T12Z_MSC_GDPS_WindDir_IsbL-0350_LatLon0.15_PT132H.grib2 2026-04-14 16:33 1.2M
20260414T12Z_MSC_GDPS_WindDir_IsbL-0400_LatLon0.15_PT132H.grib2 2026-04-14 16:33 1.2M
20260414T12Z_MSC_GDPS_WindDir_IsbL-0450_LatLon0.15_PT132H.grib2 2026-04-14 16:33 1.3M
20260414T12Z_MSC_GDPS_WindDir_IsbL-0500_LatLon0.15_PT132H.grib2 2026-04-14 16:33 1.3M
20260414T12Z_MSC_GDPS_WindDir_IsbL-0550_LatLon0.15_PT132H.grib2 2026-04-14 16:33 1.4M
20260414T12Z_MSC_GDPS_WindDir_IsbL-0600_LatLon0.15_PT132H.grib2 2026-04-14 16:33 1.4M
20260414T12Z_MSC_GDPS_WindDir_IsbL-0650_LatLon0.15_PT132H.grib2 2026-04-14 16:33 1.5M
20260414T12Z_MSC_GDPS_WindDir_IsbL-0700_LatLon0.15_PT132H.grib2 2026-04-14 16:33 1.6M
20260414T12Z_MSC_GDPS_WindDir_IsbL-0750_LatLon0.15_PT132H.grib2 2026-04-14 16:33 1.7M
20260414T12Z_MSC_GDPS_WindDir_IsbL-0800_LatLon0.15_PT132H.grib2 2026-04-14 16:33 1.8M
20260414T12Z_MSC_GDPS_WindDir_IsbL-0850_LatLon0.15_PT132H.grib2 2026-04-14 16:33 1.9M
20260414T12Z_MSC_GDPS_WindDir_IsbL-0875_LatLon0.15_PT132H.grib2 2026-04-14 16:33 2.0M
20260414T12Z_MSC_GDPS_WindDir_IsbL-0900_LatLon0.15_PT132H.grib2 2026-04-14 16:33 2.0M
20260414T12Z_MSC_GDPS_WindDir_IsbL-0925_LatLon0.15_PT132H.grib2 2026-04-14 16:33 2.0M
20260414T12Z_MSC_GDPS_WindDir_IsbL-0950_LatLon0.15_PT132H.grib2 2026-04-14 16:33 2.0M
20260414T12Z_MSC_GDPS_WindDir_IsbL-0970_LatLon0.15_PT132H.grib2 2026-04-14 16:33 2.0M
20260414T12Z_MSC_GDPS_WindDir_IsbL-0985_LatLon0.15_PT132H.grib2 2026-04-14 16:33 2.1M
20260414T12Z_MSC_GDPS_WindDir_IsbL-1000_LatLon0.15_PT132H.grib2 2026-04-14 16:33 2.1M
20260414T12Z_MSC_GDPS_WindDir_IsbL-1015_LatLon0.15_PT132H.grib2 2026-04-14 16:33 2.1M
20260414T12Z_MSC_GDPS_WindGust-Max_AGL-10m_LatLon0.15_PT132H.grib2 2026-04-14 16:33 2.3M
20260414T12Z_MSC_GDPS_WindGust-Min_AGL-10m_LatLon0.15_PT132H.grib2 2026-04-14 16:33 2.2M
20260414T12Z_MSC_GDPS_WindGust_AGL-10m_LatLon0.15_PT132H.grib2 2026-04-14 16:33 2.2M
20260414T12Z_MSC_GDPS_WindSpeed_AGL-10m_LatLon0.15_PT132H.grib2 2026-04-14 16:33 1.1M
20260414T12Z_MSC_GDPS_WindSpeed_AGL-120m_LatLon0.15_PT132H.grib2 2026-04-14 16:33 1.2M
20260414T12Z_MSC_GDPS_WindSpeed_AGL-40m_LatLon0.15_PT132H.grib2 2026-04-14 16:33 1.2M
20260414T12Z_MSC_GDPS_WindSpeed_AGL-80m_LatLon0.15_PT132H.grib2 2026-04-14 16:33 1.2M
20260414T12Z_MSC_GDPS_WindSpeed_IsbL-0001_LatLon0.15_PT132H.grib2 2026-04-14 16:33 633K
20260414T12Z_MSC_GDPS_WindSpeed_IsbL-0005_LatLon0.15_PT132H.grib2 2026-04-14 16:33 690K
20260414T12Z_MSC_GDPS_WindSpeed_IsbL-0010_LatLon0.15_PT132H.grib2 2026-04-14 16:33 626K
20260414T12Z_MSC_GDPS_WindSpeed_IsbL-0020_LatLon0.15_PT132H.grib2 2026-04-14 16:33 667K
20260414T12Z_MSC_GDPS_WindSpeed_IsbL-0030_LatLon0.15_PT132H.grib2 2026-04-14 16:33 854K
20260414T12Z_MSC_GDPS_WindSpeed_IsbL-0050_LatLon0.15_PT132H.grib2 2026-04-14 16:33 916K
20260414T12Z_MSC_GDPS_WindSpeed_IsbL-0100_LatLon0.15_PT132H.grib2 2026-04-14 16:33 1.1M
20260414T12Z_MSC_GDPS_WindSpeed_IsbL-0150_LatLon0.15_PT132H.grib2 2026-04-14 16:33 1.0M
20260414T12Z_MSC_GDPS_WindSpeed_IsbL-0175_LatLon0.15_PT132H.grib2 2026-04-14 16:33 1.0M
20260414T12Z_MSC_GDPS_WindSpeed_IsbL-0200_LatLon0.15_PT132H.grib2 2026-04-14 16:33 1.1M
20260414T12Z_MSC_GDPS_WindSpeed_IsbL-0225_LatLon0.15_PT132H.grib2 2026-04-14 16:33 1.1M
20260414T12Z_MSC_GDPS_WindSpeed_IsbL-0250_LatLon0.15_PT132H.grib2 2026-04-14 16:33 1.1M
20260414T12Z_MSC_GDPS_WindSpeed_IsbL-0275_LatLon0.15_PT132H.grib2 2026-04-14 16:33 1.1M
20260414T12Z_MSC_GDPS_WindSpeed_IsbL-0300_LatLon0.15_PT132H.grib2 2026-04-14 16:33 1.1M
20260414T12Z_MSC_GDPS_WindSpeed_IsbL-0350_LatLon0.15_PT132H.grib2 2026-04-14 16:33 1.1M
20260414T12Z_MSC_GDPS_WindSpeed_IsbL-0400_LatLon0.15_PT132H.grib2 2026-04-14 16:33 1.1M
20260414T12Z_MSC_GDPS_WindSpeed_IsbL-0450_LatLon0.15_PT132H.grib2 2026-04-14 16:33 1.1M
20260414T12Z_MSC_GDPS_WindSpeed_IsbL-0500_LatLon0.15_PT132H.grib2 2026-04-14 16:33 1.1M
20260414T12Z_MSC_GDPS_WindSpeed_IsbL-0550_LatLon0.15_PT132H.grib2 2026-04-14 16:33 1.1M
20260414T12Z_MSC_GDPS_WindSpeed_IsbL-0600_LatLon0.15_PT132H.grib2 2026-04-14 16:33 1.1M
20260414T12Z_MSC_GDPS_WindSpeed_IsbL-0650_LatLon0.15_PT132H.grib2 2026-04-14 16:33 1.4M
20260414T12Z_MSC_GDPS_WindSpeed_IsbL-0700_LatLon0.15_PT132H.grib2 2026-04-14 16:33 1.5M
20260414T12Z_MSC_GDPS_WindSpeed_IsbL-0750_LatLon0.15_PT132H.grib2 2026-04-14 16:33 1.5M
20260414T12Z_MSC_GDPS_WindSpeed_IsbL-0800_LatLon0.15_PT132H.grib2 2026-04-14 16:33 1.6M
20260414T12Z_MSC_GDPS_WindSpeed_IsbL-0850_LatLon0.15_PT132H.grib2 2026-04-14 16:33 1.8M
20260414T12Z_MSC_GDPS_WindSpeed_IsbL-0875_LatLon0.15_PT132H.grib2 2026-04-14 16:33 1.9M
20260414T12Z_MSC_GDPS_WindSpeed_IsbL-0900_LatLon0.15_PT132H.grib2 2026-04-14 16:33 1.9M
20260414T12Z_MSC_GDPS_WindSpeed_IsbL-0925_LatLon0.15_PT132H.grib2 2026-04-14 16:33 1.9M
20260414T12Z_MSC_GDPS_WindSpeed_IsbL-0950_LatLon0.15_PT132H.grib2 2026-04-14 16:33 1.9M
20260414T12Z_MSC_GDPS_WindSpeed_IsbL-0970_LatLon0.15_PT132H.grib2 2026-04-14 16:33 1.8M
20260414T12Z_MSC_GDPS_WindSpeed_IsbL-0985_LatLon0.15_PT132H.grib2 2026-04-14 16:33 1.8M
20260414T12Z_MSC_GDPS_WindSpeed_IsbL-1000_LatLon0.15_PT132H.grib2 2026-04-14 16:33 1.8M
20260414T12Z_MSC_GDPS_WindSpeed_IsbL-1015_LatLon0.15_PT132H.grib2 2026-04-14 16:33 1.8M
20260414T12Z_MSC_GDPS_WindU_AGL-10m_LatLon0.15_PT132H.grib2 2026-04-14 16:33 1.6M
20260414T12Z_MSC_GDPS_WindU_AGL-120m_LatLon0.15_PT132H.grib2 2026-04-14 16:33 973K
20260414T12Z_MSC_GDPS_WindU_AGL-40m_LatLon0.15_PT132H.grib2 2026-04-14 16:33 967K
20260414T12Z_MSC_GDPS_WindU_AGL-80m_LatLon0.15_PT132H.grib2 2026-04-14 16:33 973K
20260414T12Z_MSC_GDPS_WindU_IsbL-0001_LatLon0.15_PT132H.grib2 2026-04-14 16:33 493K
20260414T12Z_MSC_GDPS_WindU_IsbL-0005_LatLon0.15_PT132H.grib2 2026-04-14 16:33 687K
20260414T12Z_MSC_GDPS_WindU_IsbL-0010_LatLon0.15_PT132H.grib2 2026-04-14 16:33 700K
20260414T12Z_MSC_GDPS_WindU_IsbL-0020_LatLon0.15_PT132H.grib2 2026-04-14 16:33 734K
20260414T12Z_MSC_GDPS_WindU_IsbL-0030_LatLon0.15_PT132H.grib2 2026-04-14 16:33 735K
20260414T12Z_MSC_GDPS_WindU_IsbL-0050_LatLon0.15_PT132H.grib2 2026-04-14 16:33 705K
20260414T12Z_MSC_GDPS_WindU_IsbL-0100_LatLon0.15_PT132H.grib2 2026-04-14 16:33 925K
20260414T12Z_MSC_GDPS_WindU_IsbL-0150_LatLon0.15_PT132H.grib2 2026-04-14 16:33 1.0M
20260414T12Z_MSC_GDPS_WindU_IsbL-0175_LatLon0.15_PT132H.grib2 2026-04-14 16:33 1.0M
20260414T12Z_MSC_GDPS_WindU_IsbL-0200_LatLon0.15_PT132H.grib2 2026-04-14 16:33 849K
20260414T12Z_MSC_GDPS_WindU_IsbL-0225_LatLon0.15_PT132H.grib2 2026-04-14 16:33 857K
20260414T12Z_MSC_GDPS_WindU_IsbL-0250_LatLon0.15_PT132H.grib2 2026-04-14 16:33 854K
20260414T12Z_MSC_GDPS_WindU_IsbL-0275_LatLon0.15_PT132H.grib2 2026-04-14 16:33 880K
20260414T12Z_MSC_GDPS_WindU_IsbL-0300_LatLon0.15_PT132H.grib2 2026-04-14 16:33 869K
20260414T12Z_MSC_GDPS_WindU_IsbL-0350_LatLon0.15_PT132H.grib2 2026-04-14 16:33 940K
20260414T12Z_MSC_GDPS_WindU_IsbL-0400_LatLon0.15_PT132H.grib2 2026-04-14 16:33 883K
20260414T12Z_MSC_GDPS_WindU_IsbL-0450_LatLon0.15_PT132H.grib2 2026-04-14 16:33 885K
20260414T12Z_MSC_GDPS_WindU_IsbL-0500_LatLon0.15_PT132H.grib2 2026-04-14 16:33 893K
20260414T12Z_MSC_GDPS_WindU_IsbL-0550_LatLon0.15_PT132H.grib2 2026-04-14 16:33 898K
20260414T12Z_MSC_GDPS_WindU_IsbL-0600_LatLon0.15_PT132H.grib2 2026-04-14 16:33 1.1M
20260414T12Z_MSC_GDPS_WindU_IsbL-0650_LatLon0.15_PT132H.grib2 2026-04-14 16:33 1.2M
20260414T12Z_MSC_GDPS_WindU_IsbL-0700_LatLon0.15_PT132H.grib2 2026-04-14 16:33 1.2M
20260414T12Z_MSC_GDPS_WindU_IsbL-0750_LatLon0.15_PT132H.grib2 2026-04-14 16:33 1.3M
20260414T12Z_MSC_GDPS_WindU_IsbL-0800_LatLon0.15_PT132H.grib2 2026-04-14 16:33 1.3M
20260414T12Z_MSC_GDPS_WindU_IsbL-0850_LatLon0.15_PT132H.grib2 2026-04-14 16:33 1.4M
20260414T12Z_MSC_GDPS_WindU_IsbL-0875_LatLon0.15_PT132H.grib2 2026-04-14 16:33 1.4M
20260414T12Z_MSC_GDPS_WindU_IsbL-0900_LatLon0.15_PT132H.grib2 2026-04-14 16:33 1.4M
20260414T12Z_MSC_GDPS_WindU_IsbL-0925_LatLon0.15_PT132H.grib2 2026-04-14 16:33 1.4M
20260414T12Z_MSC_GDPS_WindU_IsbL-0950_LatLon0.15_PT132H.grib2 2026-04-14 16:33 1.4M
20260414T12Z_MSC_GDPS_WindU_IsbL-0970_LatLon0.15_PT132H.grib2 2026-04-14 16:33 1.4M
20260414T12Z_MSC_GDPS_WindU_IsbL-0985_LatLon0.15_PT132H.grib2 2026-04-14 16:33 1.4M
20260414T12Z_MSC_GDPS_WindU_IsbL-1000_LatLon0.15_PT132H.grib2 2026-04-14 16:33 1.4M
20260414T12Z_MSC_GDPS_WindU_IsbL-1015_LatLon0.15_PT132H.grib2 2026-04-14 16:33 1.3M
20260414T12Z_MSC_GDPS_WindV_AGL-10m_LatLon0.15_PT132H.grib2 2026-04-14 16:33 1.6M
20260414T12Z_MSC_GDPS_WindV_AGL-120m_LatLon0.15_PT132H.grib2 2026-04-14 16:33 1.0M
20260414T12Z_MSC_GDPS_WindV_AGL-40m_LatLon0.15_PT132H.grib2 2026-04-14 16:33 1.2M
20260414T12Z_MSC_GDPS_WindV_AGL-80m_LatLon0.15_PT132H.grib2 2026-04-14 16:33 1.0M
20260414T12Z_MSC_GDPS_WindV_IsbL-0001_LatLon0.15_PT132H.grib2 2026-04-14 16:33 756K
20260414T12Z_MSC_GDPS_WindV_IsbL-0005_LatLon0.15_PT132H.grib2 2026-04-14 16:33 776K
20260414T12Z_MSC_GDPS_WindV_IsbL-0010_LatLon0.15_PT132H.grib2 2026-04-14 16:33 627K
20260414T12Z_MSC_GDPS_WindV_IsbL-0020_LatLon0.15_PT132H.grib2 2026-04-14 16:33 853K
20260414T12Z_MSC_GDPS_WindV_IsbL-0030_LatLon0.15_PT132H.grib2 2026-04-14 16:33 852K
20260414T12Z_MSC_GDPS_WindV_IsbL-0050_LatLon0.15_PT132H.grib2 2026-04-14 16:33 907K
20260414T12Z_MSC_GDPS_WindV_IsbL-0100_LatLon0.15_PT132H.grib2 2026-04-14 16:33 853K
20260414T12Z_MSC_GDPS_WindV_IsbL-0150_LatLon0.15_PT132H.grib2 2026-04-14 16:33 1.0M
20260414T12Z_MSC_GDPS_WindV_IsbL-0175_LatLon0.15_PT132H.grib2 2026-04-14 16:33 1.0M
20260414T12Z_MSC_GDPS_WindV_IsbL-0200_LatLon0.15_PT132H.grib2 2026-04-14 16:33 845K
20260414T12Z_MSC_GDPS_WindV_IsbL-0225_LatLon0.15_PT132H.grib2 2026-04-14 16:33 851K
20260414T12Z_MSC_GDPS_WindV_IsbL-0250_LatLon0.15_PT132H.grib2 2026-04-14 16:33 908K
20260414T12Z_MSC_GDPS_WindV_IsbL-0275_LatLon0.15_PT132H.grib2 2026-04-14 16:33 934K
20260414T12Z_MSC_GDPS_WindV_IsbL-0300_LatLon0.15_PT132H.grib2 2026-04-14 16:33 923K
20260414T12Z_MSC_GDPS_WindV_IsbL-0350_LatLon0.15_PT132H.grib2 2026-04-14 16:33 933K
20260414T12Z_MSC_GDPS_WindV_IsbL-0400_LatLon0.15_PT132H.grib2 2026-04-14 16:33 877K
20260414T12Z_MSC_GDPS_WindV_IsbL-0450_LatLon0.15_PT132H.grib2 2026-04-14 16:33 878K
20260414T12Z_MSC_GDPS_WindV_IsbL-0500_LatLon0.15_PT132H.grib2 2026-04-14 16:33 882K
20260414T12Z_MSC_GDPS_WindV_IsbL-0550_LatLon0.15_PT132H.grib2 2026-04-14 16:33 1.1M
20260414T12Z_MSC_GDPS_WindV_IsbL-0600_LatLon0.15_PT132H.grib2 2026-04-14 16:33 1.1M
20260414T12Z_MSC_GDPS_WindV_IsbL-0650_LatLon0.15_PT132H.grib2 2026-04-14 16:33 1.2M
20260414T12Z_MSC_GDPS_WindV_IsbL-0700_LatLon0.15_PT132H.grib2 2026-04-14 16:33 1.2M
20260414T12Z_MSC_GDPS_WindV_IsbL-0750_LatLon0.15_PT132H.grib2 2026-04-14 16:33 1.2M
20260414T12Z_MSC_GDPS_WindV_IsbL-0800_LatLon0.15_PT132H.grib2 2026-04-14 16:33 1.3M
20260414T12Z_MSC_GDPS_WindV_IsbL-0850_LatLon0.15_PT132H.grib2 2026-04-14 16:33 1.4M
20260414T12Z_MSC_GDPS_WindV_IsbL-0875_LatLon0.15_PT132H.grib2 2026-04-14 16:33 1.4M
20260414T12Z_MSC_GDPS_WindV_IsbL-0900_LatLon0.15_PT132H.grib2 2026-04-14 16:33 1.4M
20260414T12Z_MSC_GDPS_WindV_IsbL-0925_LatLon0.15_PT132H.grib2 2026-04-14 16:33 1.4M
20260414T12Z_MSC_GDPS_WindV_IsbL-0950_LatLon0.15_PT132H.grib2 2026-04-14 16:33 1.4M
20260414T12Z_MSC_GDPS_WindV_IsbL-0970_LatLon0.15_PT132H.grib2 2026-04-14 16:33 1.4M
20260414T12Z_MSC_GDPS_WindV_IsbL-0985_LatLon0.15_PT132H.grib2 2026-04-14 16:33 1.4M
20260414T12Z_MSC_GDPS_WindV_IsbL-1000_LatLon0.15_PT132H.grib2 2026-04-14 16:33 1.7M
20260414T12Z_MSC_GDPS_WindV_IsbL-1015_LatLon0.15_PT132H.grib2 2026-04-14 16:33 1.6M